Location: Clermont
(50.2608°N, 4.3172°E)
Time: 16:37:10
(UTC+00:00)

SL-16 R/B - Pass Details

Date: 13 August 2020
Orbit: 843 x 845 km, 71.0° (Epoch: 18 September)

Event Time Altitude Azimuth Distance (km) Brightness Sun altitude
Rises 22:06:11 0° 323° (NW) 3,417 6.8 -21.7°
Reaches altitude 10° 22:08:58 10° 311° (NW) 2,477 5.6 -21.9°
Maximum altitude 22:13:37 27° 257° (WSW) 1,589 3.7 -22.2°
Enters shadow 22:15:59 20° 220° (SW) 1,861 3.7 -22.4°
